Location: La Pernelle
(49.6188°N, 1.2999°W)
Time: 03:27:58
(UTC+00:00)

NOSS 3-2 (A) - Pass Details

Date: 22 October 2021
Orbit: 771 x 1437 km, 63.4° (Epoch: 21 November)

Event Time Altitude Azimuth Distance (km) Brightness Sun altitude
Rises 19:34:06 0° 310° (NW) 3,751 7.5 -25.4°
Reaches altitude 10° 19:36:48 10° 320° (NW) 2,896 6.6 -25.9°
Maximum altitude 19:43:12 37° 26° (NNE) 1,768 4.7 -26.9°
Enters shadow 19:44:29 35° 47° (NE) 1,863 4.7 -27.1°
